{"data":{"norad_id":46458,"epoch":"2026-05-25T03:36:20.596032Z","epoch_age_seconds":65146,"freshness":"FRESH","line1":"1 46458U 20065E   26145.15023838  .00047105  00000+0  61596-3 0  9994","line2":"2 46458  97.2234 194.7105 0012339 224.0652 135.9622 15.58411056316118","mean_motion":15.58411056,"eccentricity":0.0012339,"inclination_deg":97.2234,"raan_deg":194.7105,"arg_perigee_deg":224.0652,"mean_anomaly_deg":135.9622,"bstar":0.00061596,"rev_number":31611,"period_min":92.401808525157,"perigee_km":383.90121396358,"apogee_km":400.60918783696,"semimajor_km":6770.3922009003,"source":"CELESTRAK","updated_at":"2026-05-25T13:37:56.321048Z"}}